Regional Weather Roundup
Issued by NWS Cleveland, OH

Home | Current Version | Previous Version | Graphics & Text | Print | Product List | Glossary On
Versions: 1 2 3 4 5 6 7 8 9 10 11 12 13 14 15 16 17 18 19 20 21 22 23 24 25 26 27 28 29 30 31 32 33 34 35 36 37 38 39 40 41 42 43 44 45 46 47 48 49 50
000
ASUS41 KCLE 040210
RWRCLE
OHIO REGIONAL WEATHER ROUNDUP
NATIONAL WEATHER SERVICE CLEVELAND, OH
1000 PM EDT TUE MAY 03 2016

NOTE: "FAIR" INDICATES FEW OR NO CLOUDS BELOW 12,000 FEET WITH NO
SIGNIFICANT WEATHER AND/OR OBSTRUCTIONS TO VISIBILITY.

OHZ001>008-015>018-024>027-034-035-043-044-040300-
   NORTHWEST OHIO

CITY           SKY/WX    TMP DP  RH WIND       PRES   REMARKS
DEFIANCE       CLEAR     52  43  71 S7        29.81S
FINDLAY        CLEAR     52  41  66 SW7       29.82S
TOLEDO EXPRESS CLEAR     53  40  61 S6        29.80S
TOLEDO EXEC    CLEAR     50  42  74 S7        29.81S
LIMA           CLEAR     51  42  71 S7        29.83S
$$

OHZ009>014-019>023-028>033-038-089-040300-
   NORTHEAST OHIO

CITY           SKY/WX    TMP DP  RH WIND       PRES   REMARKS
CLE-HOPKINS    PTCLDY    51  38  60 S5        29.85S
CLE-LAKEFRONT  CLEAR     54  40  59 SE3       29.82S
CUY CO. ARPT   CLEAR     50  39  66 CALM      29.83S
LORAIN-ELYRIA  CLEAR     50  39  66 CALM      29.83S
ASHTABULA      CLEAR     46  40  79 E3        29.84S
AKRON-CANTON   CLOUDY    54  38  54 CALM      29.83S
WOOSTER        CLOUDY    52  45  77 CALM      29.84S
MANSFIELD      CLOUDY    52  44  74 CALM      29.83F
YOUNGSTOWN     MOCLDY    51  37  58 N6        29.83S
$$

OHZ042-051>053-060>062-070>072-077>081-040300-
  SOUTHWEST OHIO

CITY           SKY/WX    TMP DP  RH WIND       PRES   REMARKS
CINC-COVINGTON CLOUDY    53  52  96 SW5       29.87S
CINC-LUNKEN    CLOUDY    54  52  93 S3        29.88R
HAMILTON       CLOUDY    56  49  77 CALM      29.88R
DAYTON         MOCLDY    50  47  89 W6        29.86F
WRIGHT-PAT AFB CLOUDY    55  49  79 W6        29.85S
DAYTON GENERAL CLOUDY    55  45  68 CALM      29.86R
WILMINGTON     CLOUDY    55  47  74 W7        29.86R
$$

OHZ036-037-039>041-045>050-054>059-063>069-073>076-082>088-040300-
  CENTRAL AND SOUTHEAST OHIO

CITY           SKY/WX    TMP DP  RH WIND       PRES   REMARKS
COLUMBUS       CLOUDY    54  46  74 W5        29.84S
OSU AIRPORT    CLOUDY    54  47  77 W5        29.84S
BOLTON FIELD   CLOUDY    54  47  76 CALM      29.86R
RICKENBACK AFB CLOUDY    54  48  81 W3        29.84S
NEWARK         CLOUDY    55  49  80 W3        29.84R
MARION         CLOUDY    52  46  80 SW6       29.84S
LANCASTER      CLOUDY    54  49  83 CALM      29.85S
ZANESVILLE     LGT RAIN  57  48  72 SW3       29.84S
NEW PHILLY     CLOUDY    56  43  61 CALM      29.84R
$$



USA.gov is the U.S. government's official web portal to all federal, state and local government web resources and services.